CW2274 Weather Reports


time (UTC)temp
F
wind
direction
speed
knots
gust
knots
rain 1hr
in
rain 24hr
in
rain mn
in
humidity
%
barometer
mb
20260831105028 82 329 3.5 5.2 0.00 0.00 0.00 52 1016.0
20260831104523 82 332 1.7 4.3 0.00 0.00 0.00 52 1015.5
20260831104022 82 359 0.9 3.5 0.00 0.00 0.00 52 1015.3
20260831103516 82 6 1.7 2.6 0.00 0.00 0.00 52 1015.1
20260831103029 81 6 0.9 2.6 0.00 0.00 0.00 52 1015.0
20260831102523 82 6 0.9 1.7 0.00 0.00 0.00 52 1015.0
20260831102017 82 6 0.9 2.6 0.00 0.00 0.00 52 1014.9
20260831101531 82 6 1.7 2.6 0.00 0.00 0.00 52 1014.9
20260831101025 82 6 0.0 1.7 0.00 0.00 0.00 52 1014.9
20260831100520 82 6 0.0 2.6 0.00 0.00 0.00 54 1014.9
20260831100030 81 6 0.9 2.6 0.00 0.00 0.00 55 1014.8
20260831095529 81 6 0.0 0.9 0.00 0.00 0.00 54 1014.9
20260831095023 81 6 0.0 0.9 0.00 0.00 0.00 54 1014.8
20260831094517 81 6 0.0 1.7 0.00 0.00 0.00 54 1014.8
20260831094031 81 6 0.0 1.7 0.00 0.00 0.00 56 1014.8
20260831093524 81 6 0.0 0.9 0.00 0.00 0.00 54 1014.7
20260831093019 82 6 0.0 0.9 0.00 0.00 0.00 54 1014.5
20260831092517 81 6 0.0 0.9 0.00 0.00 0.00 54 1014.6
20260831092032 82 6 0.0 0.9 0.00 0.00 0.00 54 1014.6
20260831091527 82 6 0.0 1.7 0.00 0.00 0.00 55 1014.6
20260831091022 82 6 0.9 2.6 0.00 0.00 0.00 54 1014.7
20260831090516 82 6 0.9 1.7 0.00 0.00 0.00 54 1014.9
20260831090045 82 6 0.9 1.7 0.00 0.00 0.00 54 1014.9
20260831085525 82 6 0.0 0.9 0.00 0.00 0.00 54 1014.9
20260831085019 82 6 0.0 1.7 0.00 0.00 0.00 55 1014.9
20260831084517 82 6 0.9 1.7 0.00 0.00 0.00 55 1015.0
20260831084032 82 6 0.9 1.7 0.00 0.00 0.00 55 1014.9
20260831083525 82 6 0.9 1.7 0.00 0.00 0.00 55 1015.1
20260831083019 82 6 0.9 1.7 0.00 0.00 0.00 55 1015.0
20260831082513 82 6 0.0 0.9 0.00 0.00 0.00 53 1014.9
20260831082027 82 6 0.0 0.9 0.00 0.00 0.00 55 1015.0
20260831081522 82 6 0.0 0.9 0.00 0.00 0.00 55 1015.0
20260831081019 82 6 0.0 1.7 0.00 0.00 0.00 53 1015.1
20260831080514 82 6 0.9 1.7 0.00 0.00 0.00 53 1015.0
20260831080042 83 6 0.0 0.9 0.00 0.00 0.00 52 1015.1
20260831075022 83 6 0.0 0.0 0.00 0.00 0.00 52 1015.1
20260831074517 83 6 0.0 0.0 0.00 0.00 0.00 52 1015.1
20260831074031 83 6 0.0 0.0 0.00 0.00 0.00 51 1015.2
20260831073526 83 6 0.0 0.0 0.00 0.00 0.00 50 1015.1
20260831073024 84 6 0.0 0.0 0.00 0.00 0.00 51 1015.1
20260831072520 84 6 0.0 0.9 0.00 0.00 0.00 50 1015.2
20260831072014 84 6 0.0 0.9 0.00 0.00 0.00 50 1015.2
20260831071529 84 6 0.0 0.9 0.00 0.00 0.00 49 1015.3
20260831071023 84 6 0.0 1.7 0.00 0.00 0.00 50 1015.1
20260831070518 84 6 0.0 1.7 0.00 0.00 0.00 49 1015.2
20260831070045 85 6 0.0 1.7 0.00 0.00 0.00 48 1015.2
20260831065529 85 6 0.0 1.7 0.00 0.00 0.00 48 1015.2
20260831065024 85 6 0.9 1.7 0.00 0.00 0.00 47 1015.4
20260831064518 86 6 0.9 3.5 0.00 0.00 0.00 46 1015.6
20260831064013 85 7 1.7 3.5 0.00 0.00 0.00 46 1015.4
20260831063527 85 8 0.9 2.6 0.00 0.00 0.00 48 1015.5
20260831063022 85 8 1.7 2.6 0.00 0.00 0.00 48 1015.5
20260831062516 85 9 0.9 1.7 0.00 0.00 0.00 48 1015.5
20260831062014 85 9 1.7 2.6 0.00 0.00 0.00 48 1015.5
20260831061529 85 9 0.0 2.6 0.00 0.00 0.00 48 1015.5
20260831061023 85 9 0.9 1.7 0.00 0.00 0.00 48 1015.5
20260831060517 85 9 0.9 1.7 0.00 0.00 0.00 47 1015.7
20260831060044 85 9 0.9 2.6 0.00 0.00 0.00 47 1015.5
20260831055524 86 9 0.9 4.3 0.00 0.00 0.00 46 1015.4
20260831055019 86 9 1.7 5.2 0.00 0.00 0.00 46 1015.3
20260831054514 86 11 2.6 5.2 0.00 0.00 0.00 45 1015.3
20260831054032 86 4 2.6 5.2 0.00 0.00 0.00 44 1015.4
20260831053526 86 6 1.7 5.2 0.00 0.00 0.00 44 1015.3
20260831053020 87 6 1.7 4.3 0.00 0.00 0.00 43 1015.2
20260831052515 87 33 0.0 3.5 0.00 0.00 0.00 43 1015.0
20260831052029 87 33 1.7 7.0 0.00 0.00 0.00 43 1015.0
20260831051523 88 33 2.6 7.0 0.00 0.00 0.00 42 1014.9
20260831051017 87 6 2.6 6.1 0.00 0.00 0.00 42 1014.9
20260831050516 88 6 3.5 6.1 0.00 0.00 0.00 41 1014.7
20260831050042 88 360 0.9 6.1 0.00 0.00 0.00 41 1014.8
20260831045522 88 2 2.6 5.2 0.00 0.00 0.00 41 1014.8
20260831045016 88 13 3.5 5.2 0.00 0.00 0.00 40 1014.8
20260831044530 89 329 1.7 14.8 0.00 0.00 0.00 43 1014.7
20260831044104 89 277 5.2 14.8 0.00 0.00 0.00 43 1014.6
20260831043514 89 271 7.0 13.9 0.00 0.00 0.00 43 1014.6
20260831043028 89 260 6.1 14.8 0.00 0.00 0.00 43 1014.5
20260831042523 89 260 7.8 14.8 0.00 0.00 0.00 43 1014.6
20260831042021 89 292 5.2 12.2 0.00 0.00 0.00 42 1014.7
20260831041516 89 267 6.1 12.2 0.00 0.00 0.00 42 1014.6
20260831041030 89 276 6.1 13.0 0.00 0.00 0.00 42 1014.6
20260831040524 89 265 7.8 16.5 0.00 0.00 0.00 41 1014.5
20260831040030 89 289 5.2 16.5 0.00 0.00 0.00 40 1014.5
20260831035530 89 271 5.2 12.2 0.00 0.00 0.00 39 1014.5
20260831035025 89 283 4.3 16.5 0.00 0.00 0.00 39 1014.4
20260831034520 90 252 8.7 16.5 0.00 0.00 0.00 40 1014.2
20260831034019 90 254 7.0 12.2 0.00 0.00 0.00 40 1014.3
20260831033513 90 274 7.0 13.9 0.00 0.00 0.00 40 1014.1
20260831033028 90 277 8.7 13.9 0.00 0.00 0.00 40 1014.0
20260831032522 90 279 7.0 14.8 0.00 0.00 0.00 40 1014.0
20260831032017 90 261 7.8 18.2 0.00 0.00 0.00 40 1013.9
20260831031512 90 267 10.4 19.1 0.00 0.00 0.00 39 1013.7
20260831031026 90 263 10.4 19.1 0.00 0.00 0.00 39 1013.5
20260831030525 91 229 9.6 14.8 0.00 0.00 0.00 39 1013.5
20260831030030 91 238 7.8 15.6 0.00 0.00 0.00 38 1013.4
20260831025531 91 271 5.2 16.5 0.00 0.00 0.00 38 1013.4
20260831025026 91 264 7.0 16.5 0.00 0.00 0.00 38 1013.5
20260831024520 92 258 7.0 15.6 0.00 0.00 0.00 37 1013.4
20260831024015 92 288 6.1 10.4 0.00 0.00 0.00 36 1013.4
20260831023529 92 266 6.1 11.3 0.00 0.00 0.00 36 1013.0
20260831023024 93 283 5.2 8.7 0.00 0.00 0.00 35 1013.1
20260831022522 94 277 3.5 8.7 0.00 0.00 0.00 35 1013.0
20260831022017 94 287 3.5 6.1 0.00 0.00 0.00 34 1012.8
20260831021512 94 287 2.6 6.1 0.00 0.00 0.00 34 1012.8
20260831021026 94 289 1.7 7.0 0.00 0.00 0.00 34 1012.6
20260831020518 94 289 1.7 6.1 0.00 0.00 0.00 34 1012.6
20260831020044 94 304 2.6 4.3 0.00 0.00 0.00 33 1012.5
20260831015524 95 308 1.7 3.5 0.00 0.00 0.00 33 1012.4
20260831015023 95 312 1.7 4.3 0.00 0.00 0.00 32 1012.4
20260831014517 95 331 1.7 3.5 0.00 0.00 0.00 32 1012.3
20260831014031 95 331 2.6 4.3 0.00 0.00 0.00 32 1012.4
20260831013526 95 332 1.7 4.3 0.00 0.00 0.00 32 1012.3
20260831013021 95 333 1.7 3.5 0.00 0.00 0.00 32 1012.3
20260831012514 95 337 0.9 2.6 0.00 0.00 0.00 32 1012.3
20260831012028 95 340 0.9 2.6 0.00 0.00 0.00 32 1012.3
20260831011523 95 340 0.9 2.6 0.00 0.00 0.00 31 1012.3
20260831011022 96 340 0.9 2.6 0.00 0.00 0.00 32 1012.1
20260831010517 96 340 0.9 3.5 0.00 0.00 0.00 32 1012.3
20260831010026 96 331 1.7 4.3 0.00 0.00 0.00 31 1012.2
20260831005525 96 356 0.9 2.6 0.00 0.00 0.00 31 1012.1
20260831005020 96 356 0.9 6.1 0.00 0.00 0.00 30 1012.2
20260831004515 96 356 1.7 7.0 0.00 0.00 0.00 30 1012.2
20260831004030 97 346 1.7 7.0 0.00 0.00 0.00 30 1012.1
20260831003529 97 359 1.7 5.2 0.00 0.00 0.00 30 1012.0
20260831003023 97 344 2.6 5.2 0.00 0.00 0.00 30 1012.1
20260831002517 97 309 1.7 5.2 0.00 0.00 0.00 30 1012.2
20260831002031 97 352 1.7 6.1 0.00 0.00 0.00 30 1012.3
20260831001526 97 19 2.6 4.3 0.00 0.00 0.00 30 1012.3
20260831001020 97 344 2.6 4.3 0.00 0.00 0.00 30 1012.3
20260831000516 98 356 1.7 5.2 0.00 0.00 0.00 30 1012.1
20260831000027 97 351 1.7 7.0 0.00 0.00 0.00 30 1012.3
20260830235527 97 360 2.6 7.0 0.00 0.00 0.00 30 1012.3
20260830235023 97 360 2.6 4.3 0.00 0.00 0.00 29 1012.3
20260830233529 97 312 1.7 3.5 0.00 0.00 0.00 29 1012.1
20260830233025 97 309 0.9 4.3 0.00 0.00 0.00 31 1012.3
20260830232521 98 308 1.7 5.2 0.00 0.00 0.00 29 1012.4
20260830232016 98 336 1.7 6.1 0.00 0.00 0.00 29 1012.4
20260830231516 98 307 0.9 3.5 0.00 0.00 0.00 30 1012.5
20260830231032 99 307 1.7 3.5 0.00 0.00 0.00 29 1012.6
20260830230529 99 294 1.7 4.3 0.00 0.00 0.00 29 1012.7
20260830230036 98 294 2.6 6.1 0.00 0.00 0.00 30 1012.8
20260830225518 99 295 1.7 6.1 0.00 0.00 0.00 29 1012.8
20260830225013 99 316 1.7 8.7 0.00 0.00 0.00 29 1012.8
20260830224529 99 301 3.5 6.1 0.00 0.00 0.00 29 1012.9
20260830224025 99 2 1.7 3.5 0.00 0.00 0.00 30 1012.9
20260830223525 99 6 1.7 4.3 0.00 0.00 0.00 29 1013.2
20260830223021 100 6 2.6 7.8 0.00 0.00 0.00 29 1013.1
20260830222516 101 352 2.6 7.8 0.00 0.00 0.00 28 1013.3
20260830222032 100 296 2.6 7.8 0.00 0.00 0.00 29 1013.5
20260830221529 100 231 3.5 7.8 0.00 0.00 0.00 29 1013.6
20260830221026 101 286 3.5 8.7 0.00 0.00 0.00 28 1013.6
20260830220522 101 289 4.3 8.7 0.00 0.00 0.00 28 1013.7
20260830220034 100 325 2.6 7.8 0.00 0.00 0.00 29 1013.7
20260830215515 100 295 2.6 12.2 0.00 0.00 0.00 29 1013.9
20260830215032 100 299 2.6 12.2 0.00 0.00 0.00 29 1013.8
20260830214528 99 19 1.7 6.1 0.00 0.00 0.00 29 1013.9
20260830212026 97 23 0.9 4.3 0.00 0.00 0.00 31 1014.3
20260830211521 98 23 1.7 7.8 0.00 0.00 0.00 31 1014.3
20260830211017 100 23 5.2 7.8 0.00 0.00 0.00 29 1014.4
20260830210517 98 352 2.6 7.0 0.00 0.00 0.00 31 1014.7
20260830210045 99 358 1.7 6.1 0.00 0.00 0.00 29 1014.8
20260830205526 99 75 1.7 6.1 0.00 0.00 0.00 31 1014.8
20260830205022 98 69 2.6 6.1 0.00 0.00 0.00 31 1014.9
20260830204519 99 27 2.6 5.2 0.00 0.00 0.00 31 1015.0
20260830204014 98 36 2.6 4.3 0.00 0.00 0.00 31 1015.2
20260830203530 97 61 3.5 7.8 0.00 0.00 0.00 32 1015.2
20260830203026 99 38 2.6 7.8 0.00 0.00 0.00 31 1015.3
20260830202526 100 290 1.7 7.0 0.00 0.00 0.00 30 1015.2
20260830202021 100 249 3.5 7.0 0.00 0.00 0.00 30 1015.3
20260830201517 98 311 1.7 4.3 0.00 0.00 0.00 32 1015.6
20260830201013 97 81 1.7 8.7 0.00 0.00 0.00 32 1015.8
20260830200529 97 91 4.3 8.7 0.00 0.00 0.00 32 1015.8
20260830200037 97 30 3.5 8.7 0.00 0.00 0.00 32 1015.8
20260830195518 97 65 5.2 8.7 0.00 0.00 0.00 32 1015.7
20260830195018 96 105 1.7 9.6 0.00 0.00 0.00 33 1015.9
20260830194514 97 70 5.2 9.6 0.00 0.00 0.00 32 1015.9
20260830194029 97 92 1.7 7.8 0.00 0.00 0.00 33 1016.0
20260830193525 96 85 4.3 8.7 0.00 0.00 0.00 33 1016.0
20260830193021 96 77 3.5 8.7 0.00 0.00 0.00 33 1016.1
20260830192517 96 116 2.6 7.8 0.00 0.00 0.00 34 1016.3
20260830192013 96 151 2.6 8.7 0.00 0.00 0.00 34 1016.4
20260830191532 95 81 4.3 8.7 0.00 0.00 0.00 35 1016.4
20260830191028 95 98 4.3 8.7 0.00 0.00 0.00 35 1016.6
20260830190524 95 97 5.2 8.7 0.00 0.00 0.00 35 1016.7
20260830190031 94 99 5.2 9.6 0.00 0.00 0.00 36 1016.7
20260830185512 94 115 6.1 11.3 0.00 0.00 0.00 36 1016.8
20260830185029 94 58 5.2 11.3 0.00 0.00 0.00 36 1016.8
20260830184524 94 90 6.1 9.6 0.00 0.00 0.00 37 1016.9
20260830184024 94 80 4.3 8.7 0.00 0.00 0.00 36 1017.0
20260830183520 94 80 4.3 11.3 0.00 0.00 0.00 37 1017.0
20260830183016 93 95 6.1 11.3 0.00 0.00 0.00 38 1017.1
20260830182532 93 104 6.1 8.7 0.00 0.00 0.00 37 1017.2
20260830182027 94 87 4.3 8.7 0.00 0.00 0.00 37 1017.3
20260830181523 93 92 2.6 8.7 0.00 0.00 0.00 37 1017.3
20260830181018 93 104 5.2 8.7 0.00 0.00 0.00 37 1017.5
20260830180518 93 88 2.6 9.6 0.00 0.00 0.00 38 1017.5
20260830180046 92 79 5.2 9.6 0.00 0.00 0.00 37 1017.5
20260830175527 93 79 3.5 9.6 0.00 0.00 0.00 38 1017.6
20260830175024 91 60 4.3 9.6 0.00 0.00 0.00 40 1017.6
20260830174520 91 84 3.5 8.7 0.00 0.00 0.00 39 1017.7
20260830174016 90 65 4.3 8.7 0.00 0.00 0.00 40 1017.7
20260830173532 91 86 0.9 7.8 0.00 0.00 0.00 39 1017.7
20260830173028 91 97 4.3 7.8 0.00 0.00 0.00 40 1017.7
20260830172527 90 96 4.3 8.7 0.00 0.00 0.00 41 1017.8
20260830172024 90 77 5.2 8.7 0.00 0.00 0.00 40 1017.8
20260830171520 89 89 4.3 7.8 0.00 0.00 0.00 41 1017.7
20260830171016 89 107 5.2 7.8 0.00 0.00 0.00 41 1017.9
20260830170513 90 97 3.5 7.8 0.00 0.00 0.00 41 1017.7
20260830170040 89 80 5.2 8.7 0.00 0.00 0.00 41 1017.9
20260830165521 89 79 5.2 9.6 0.00 0.00 0.00 41 1017.9
20260830165021 89 72 6.1 9.6 0.00 0.00 0.00 41 1017.9
20260830164517 89 92 3.5 7.8 0.00 0.00 0.00 41 1017.8
20260830164013 89 99 5.2 7.8 0.00 0.00 0.00 41 1017.9
20260830163529 90 177 2.6 9.6 0.00 0.00 0.00 41 1017.8
20260830163025 89 102 3.5 9.6 0.00 0.00 0.00 42 1017.9
20260830162520 89 118 4.3 8.7 0.00 0.00 0.00 42 1017.9
20260830162016 89 218 3.5 8.7 0.00 0.00 0.00 42 1018.0
20260830161516 89 194 2.6 7.8 0.00 0.00 0.00 43 1018.0
20260830161032 88 207 2.6 7.0 0.00 0.00 0.00 43 1018.0
20260830160528 88 125 3.5 7.8 0.00 0.00 0.00 43 1018.1
20260830160035 88 215 2.6 7.8 0.00 0.00 0.00 44 1018.0
20260830155517 87 213 3.5 7.8 0.00 0.00 0.00 44 1018.1
20260830155012 87 119 3.5 8.7 0.00 0.00 0.00 44 1018.1
20260830154528 87 106 3.5 8.7 0.00 0.00 0.00 45 1018.0
20260830154028 87 114 4.3 8.7 0.00 0.00 0.00 44 1017.9
20260830153524 87 131 3.5 8.7 0.00 0.00 0.00 45 1017.9
20260830153020 87 131 3.5 7.0 0.00 0.00 0.00 44 1018.0
20260830152516 86 215 3.5 6.1 0.00 0.00 0.00 45 1018.1
20260830152031 86 159 1.7 7.0 0.00 0.00 0.00 46 1018.1
20260830151527 86 210 3.5 7.0 0.00 0.00 0.00 47 1018.0
20260830151024 85 204 1.7 3.5 0.00 0.00 0.00 49 1018.0
20260830150524 85 204 1.7 3.5 0.00 0.00 0.00 50 1018.0
20260830150032 84 204 1.7 3.5 0.00 0.00 0.00 51 1018.0
20260830145514 84 205 0.9 4.3 0.00 0.00 0.00 51 1018.2
20260830145030 83 205 1.7 4.3 0.00 0.00 0.00 52 1018.0
20260830144525 83 205 1.7 4.3 0.00 0.00 0.00 52 1018.0
20260830144021 83 205 2.6 4.3 0.00 0.00 0.00 53 1018.0
20260830143517 82 202 1.7 4.3 0.00 0.00 0.00 53 1018.1
20260830143017 82 202 1.7 5.2 0.00 0.00 0.00 53 1018.1
20260830142513 82 200 2.6 5.2 0.00 0.00 0.00 54 1018.2
20260830142029 82 196 1.7 5.2 0.00 0.00 0.00 54 1018.3
20260830141525 81 89 0.9 3.5 0.00 0.00 0.00 54 1018.3
20260830141020 81 89 1.7 3.5 0.00 0.00 0.00 54 1018.3
20260830140516 81 89 1.7 3.5 0.00 0.00 0.00 54 1018.2
20260830140043 81 89 1.7 6.1 0.00 0.00 0.00 54 1018.3
20260830135526 81 89 2.6 6.1 0.00 0.00 0.00 54 1018.3
20260830135026 81 96 3.5 6.1 0.00 0.00 0.00 53 1018.2
20260830134522 81 97 2.6 6.1 0.00 0.00 0.00 53 1018.1
20260830134017 81 99 2.6 4.3 0.00 0.00 0.00 52 1018.0
20260830133512 81 100 1.7 3.5 0.00 0.00 0.00 52 1018.1
20260830133028 82 100 1.7 4.3 0.00 0.00 0.00 52 1018.1
20260830132524 82 99 2.6 4.3 0.00 0.00 0.00 51 1018.1
20260830132020 82 98 1.7 3.5 0.00 0.00 0.00 51 1018.0
20260830131520 82 97 2.6 3.5 0.00 0.00 0.00 51 1018.0
20260830131015 82 97 1.7 3.5 0.00 0.00 0.00 51 1017.9
20260830130531 82 97 0.9 3.5 0.00 0.00 0.00 50 1018.0
20260830130040 82 97 2.6 3.5 0.00 0.00 0.00 50 1017.9
20260830125521 82 96 1.7 3.5 0.00 0.00 0.00 50 1017.8
20260830125017 82 96 2.6 3.5 0.00 0.00 0.00 50 1017.7
20260830124513 82 96 0.9 3.5 0.00 0.00 0.00 50 1017.7
20260830124013 82 96 0.9 3.5 0.00 0.00 0.00 50 1017.7
20260830123528 82 96 1.7 6.1 0.00 0.00 0.00 49 1017.5
20260830123024 83 96 2.6 7.8 0.00 0.00 0.00 48 1017.3
20260830122520 83 101 4.3 7.8 0.00 0.00 0.00 47 1017.2
20260830122016 82 110 2.6 5.2 0.00 0.00 0.00 48 1017.2
20260830121513 82 154 2.6 4.3 0.00 0.00 0.00 48 1017.3
20260830121029 82 204 2.6 4.3 0.00 0.00 0.00 48 1017.4
20260830120529 83 206 1.7 4.3 0.00 0.00 0.00 47 1017.5
20260830120036 83 216 1.7 4.3 0.00 0.00 0.00 47 1017.5
20260830115517 83 217 1.7 5.2 0.00 0.00 0.00 47 1017.2
20260830115013 83 217 2.6 5.2 0.00 0.00 0.00 46 1017.2
20260830114529 84 227 3.5 7.0 0.00 0.00 0.00 45 1017.1
20260830114025 84 138 4.3 8.7 0.00 0.00 0.00 45 1016.9
20260830113521 84 125 3.5 8.7 0.00 0.00 0.00 45 1016.7
20260830113020 83 115 4.3 8.7 0.00 0.00 0.00 46 1016.5
20260830112516 83 115 3.5 7.0 0.00 0.00 0.00 48 1016.4
20260830112012 82 133 2.6 5.2 0.00 0.00 0.00 49 1016.3
20260830111528 82 147 2.6 7.0 0.00 0.00 0.00 49 1016.4
20260830111024 83 119 3.5 7.0 0.00 0.00 0.00 49 1016.5
20260830110519 83 148 4.3 7.0 0.00 0.00 0.00 49 1016.5
20260830110028 83 83 2.6 7.0 0.00 0.00 0.00 50 1016.6
20260830105513 83 109 2.6 5.2 0.00 0.00 0.00 50 1016.5